| time (UTC) | temp C | wind direction | speed KPH | gust KPH | rain 1hr cm | rain 24hr cm | rain mn cm | humidity % | barometer mb |
| 20260904121551 | 15 | 229 | 4.8 | 14.5 | 0.30 | 0.99 | 0.64 | 91 | 999.8 |
| 20260904120058 | 15 | 220 | 3.2 | 16.1 | 0.23 | 0.89 | 0.53 | 91 | 1000.0 |
| 20260904114550 | 15 | 231 | 8.0 | 20.9 | 0.15 | 0.79 | 0.43 | 91 | 1000.1 |
| 20260904113046 | 15 | 227 | 9.7 | 19.3 | 0.15 | 0.76 | 0.38 | 91 | 1000.1 |
| 20260904111546 | 15 | 205 | 9.7 | 19.3 | 0.13 | 0.71 | 0.33 | 91 | 1000.1 |
| 20260904110045 | 15 | 207 | 6.4 | 19.3 | 0.13 | 0.69 | 0.30 | 91 | 1000.2 |
| 20260904104544 | 15 | 209 | 8.0 | 16.1 | 0.15 | 0.71 | 0.28 | 91 | 1000.4 |
| 20260904103043 | 15 | 216 | 8.0 | 16.1 | 0.15 | 0.69 | 0.23 | 90 | 1000.7 |
| 20260904101541 | 15 | 210 | 6.4 | 11.3 | 0.15 | 0.66 | 0.23 | 90 | 1000.9 |
| 20260904100036 | 15 | 218 | 9.7 | 19.3 | 0.15 | 0.61 | 0.18 | 89 | 1001.4 |
| 20260904094535 | 15 | 201 | 8.0 | 16.1 | 0.08 | 0.71 | 0.13 | 89 | 1001.4 |
| 20260904093033 | 15 | 181 | 6.4 | 12.9 | 0.05 | 0.71 | 0.08 | 88 | 1001.8 |
| 20260904091531 | 15 | 178 | 9.7 | 14.5 | 0.03 | 0.69 | 0.05 | 87 | 1002.1 |
| 20260904090028 | 15 | 235 | 4.8 | 16.1 | 0.00 | 0.66 | 0.05 | 86 | 1002.4 |
| 20260904084527 | 15 | 207 | 8.0 | 20.9 | 0.00 | 0.97 | 0.05 | 86 | 1002.5 |
| 20260904083026 | 15 | 191 | 8.0 | 14.5 | 0.00 | 0.97 | 0.05 | 87 | 1002.7 |
| 20260904081524 | 15 | 228 | 6.4 | 16.1 | 0.00 | 0.97 | 0.05 | 87 | 1002.8 |
| 20260904080025 | 15 | 212 | 6.4 | 16.1 | 0.00 | 0.97 | 0.05 | 88 | 1002.9 |
| 20260904074524 | 15 | 220 | 6.4 | 14.5 | 0.00 | 0.99 | 0.05 | 87 | 1003.0 |
| 20260904073020 | 15 | 178 | 4.8 | 11.3 | 0.00 | 0.99 | 0.05 | 87 | 1003.1 |
| 20260904071518 | 15 | 229 | 3.2 | 12.9 | 0.00 | 0.99 | 0.05 | 86 | 1003.3 |
| 20260904070018 | 15 | 233 | 4.8 | 11.3 | 0.00 | 0.99 | 0.05 | 86 | 1003.4 |
| 20260904064517 | 15 | 231 | 4.8 | 17.7 | 0.00 | 1.04 | 0.05 | 86 | 1003.7 |
| 20260904063015 | 15 | 243 | 6.4 | 12.9 | 0.00 | 1.04 | 0.05 | 85 | 1003.9 |
| 20260904061515 | 15 | 210 | 3.2 | 11.3 | 0.00 | 1.04 | 0.05 | 85 | 1004.0 |
| 20260904060013 | 15 | 231 | 4.8 | 8.0 | 0.00 | 1.04 | 0.05 | 84 | 1004.1 |
| 20260904054527 | 14 | 257 | 4.8 | 9.7 | 0.00 | 1.35 | 0.05 | 84 | 1004.3 |
| 20260904053009 | 15 | 233 | 1.6 | 8.0 | 0.00 | 1.35 | 0.05 | 84 | 1004.6 |
| 20260904051510 | 15 | 232 | 3.2 | 8.0 | 0.00 | 1.35 | 0.05 | 84 | 1004.6 |
| 20260904050007 | 15 | 236 | 3.2 | 12.9 | 0.00 | 1.35 | 0.05 | 83 | 1004.6 |
| 20260904044511 | 15 | 235 | 6.4 | 14.5 | 0.00 | 1.45 | 0.05 | 83 | 1004.7 |
| 20260904043005 | 15 | 233 | 8.0 | 20.9 | 0.00 | 1.45 | 0.05 | 83 | 1004.6 |
| 20260904041505 | 15 | 263 | 6.4 | 17.7 | 0.00 | 1.45 | 0.05 | 84 | 1004.5 |
| 20260904040003 | 15 | 284 | 6.4 | 14.5 | 0.00 | 1.45 | 0.05 | 82 | 1004.8 |
| 20260904034502 | 15 | 231 | 6.4 | 20.9 | 0.00 | 1.45 | 0.05 | 80 | 1004.9 |
| 20260904033100 | 15 | 258 | 9.7 | 24.1 | 0.00 | 1.45 | 0.05 | 79 | 1005.0 |
| 20260904031602 | 15 | 268 | 11.3 | 29.0 | 0.00 | 1.45 | 0.05 | 79 | 1005.3 |
| 20260904024558 | 15 | 266 | 17.7 | 30.6 | 0.00 | 1.45 | 0.05 | 82 | 1005.1 |
| 20260904023053 | 15 | 250 | 16.1 | 25.7 | 0.00 | 1.45 | 0.05 | 85 | 1005.3 |
| 20260904021557 | 15 | 323 | 12.9 | 30.6 | 0.00 | 1.45 | 0.05 | 85 | 1005.4 |
| 20260904020046 | 15 | 251 | 8.0 | 22.5 | 0.00 | 1.45 | 0.05 | 86 | 1005.7 |
| 20260904014546 | 15 | 244 | 14.5 | 22.5 | 0.00 | 1.45 | 0.05 | 88 | 1005.7 |
| 20260904013052 | 15 | 262 | 6.4 | 19.3 | 0.05 | 1.45 | 0.05 | 88 | 1005.5 |
| 20260904011556 | 15 | 215 | 9.7 | 22.5 | 0.05 | 1.45 | 0.05 | 88 | 1005.8 |
| 20260904010038 | 15 | 276 | 14.5 | 27.4 | 0.05 | 1.45 | 0.05 | 88 | 1005.9 |
| 20260904004537 | 15 | 254 | 9.7 | 20.9 | 0.05 | 1.45 | 0.05 | 87 | 1006.0 |
| 20260904003036 | 16 | 304 | 14.5 | 30.6 | 0.00 | 1.42 | 0.00 | 85 | 1006.0 |
| 20260904001534 | 16 | 262 | 14.5 | 25.7 | 0.00 | 1.42 | 0.00 | 86 | 1006.2 |
| 20260904000033 | 16 | 278 | 9.7 | 24.1 | 0.00 | 1.42 | 0.00 | 86 | 1006.0 |
| 20260903234531 | 16 | 281 | 9.7 | 20.9 | 0.00 | 1.42 | 0.00 | 86 | 1006.1 |
| 20260903233036 | 16 | 264 | 12.9 | 24.1 | 0.00 | 1.42 | 0.00 | 85 | 1006.3 |
| 20260903231541 | 16 | 279 | 12.9 | 20.9 | 0.00 | 1.42 | 0.00 | 84 | 1006.2 |
| 20260903230033 | 16 | 294 | 17.7 | 30.6 | 0.00 | 1.42 | 0.00 | 84 | 1006.3 |
| 20260903224536 | 16 | 289 | 12.9 | 22.5 | 0.00 | 1.42 | 0.00 | 86 | 1006.5 |
| 20260903223025 | 16 | 256 | 9.7 | 20.9 | 0.00 | 1.42 | 0.00 | 85 | 1006.6 |
| 20260903221523 | 16 | 310 | 14.5 | 27.4 | 0.00 | 1.42 | 0.00 | 84 | 1006.5 |
| 20260903220024 | 16 | 272 | 17.7 | 25.7 | 0.00 | 1.42 | 0.00 | 84 | 1006.4 |
| 20260903214518 | 16 | 279 | 16.1 | 25.7 | 0.00 | 1.42 | 1.42 | 85 | 1006.5 |
| 20260903213018 | 16 | 275 | 12.9 | 24.1 | 0.00 | 1.42 | 1.42 | 85 | 1006.5 |
| 20260903211517 | 16 | 268 | 17.7 | 30.6 | 0.00 | 1.42 | 1.42 | 85 | 1006.5 |
| 20260903210016 | 16 | 253 | 20.9 | 35.4 | 0.00 | 1.42 | 1.42 | 86 | 1006.4 |
| 20260903204515 | 16 | 283 | 12.9 | 25.7 | 0.00 | 1.42 | 1.42 | 87 | 1006.4 |
| 20260903203014 | 16 | 310 | 16.1 | 27.4 | 0.00 | 1.42 | 1.42 | 86 | 1006.4 |
| 20260903201514 | 16 | 272 | 22.5 | 35.4 | 0.00 | 1.42 | 1.42 | 87 | 1006.5 |
| 20260903200013 | 16 | 154 | 17.7 | 33.8 | 0.00 | 1.42 | 1.42 | 87 | 1006.3 |
| 20260903194512 | 17 | 358 | 12.9 | 27.4 | 0.00 | 1.42 | 1.42 | 87 | 1006.2 |
| 20260903193014 | 17 | 282 | 17.7 | 35.4 | 0.00 | 1.42 | 1.42 | 86 | 1006.1 |
| 20260903191526 | 17 | 214 | 14.5 | 30.6 | 0.00 | 1.42 | 1.42 | 87 | 1005.9 |
| 20260903190011 | 17 | 272 | 17.7 | 30.6 | 0.00 | 1.42 | 1.42 | 87 | 1005.7 |
| 20260903184510 | 17 | 274 | 16.1 | 35.4 | 0.00 | 1.42 | 1.42 | 87 | 1005.9 |
| 20260903183009 | 17 | 274 | 14.5 | 33.8 | 0.00 | 1.42 | 1.42 | 89 | 1005.6 |
| 20260903181511 | 17 | 236 | 8.0 | 24.1 | 0.15 | 1.42 | 1.42 | 90 | 1005.6 |
| 20260903180014 | 17 | 243 | 9.7 | 24.1 | 0.28 | 1.42 | 1.42 | 90 | 1005.2 |
| 20260903174515 | 17 | 273 | 11.3 | 30.6 | 0.30 | 1.42 | 1.42 | 90 | 1005.2 |
| 20260903173008 | 17 | 283 | 9.7 | 22.5 | 0.30 | 1.42 | 1.42 | 90 | 1005.2 |
| 20260903171507 | 17 | 259 | 9.7 | 20.9 | 0.15 | 1.27 | 1.27 | 90 | 1005.5 |
| 20260903170006 | 18 | 266 | 6.4 | 24.1 | 0.03 | 1.17 | 1.17 | 90 | 1005.3 |
| 20260903164504 | 18 | 208 | 8.0 | 14.5 | 0.00 | 1.14 | 1.14 | 90 | 1005.0 |
| 20260903163003 | 18 | 270 | 8.0 | 19.3 | 0.00 | 1.14 | 1.14 | 91 | 1005.2 |
| 20260903161501 | 18 | 214 | 6.4 | 17.7 | 0.00 | 1.14 | 1.14 | 91 | 1005.2 |
| 20260903160002 | 18 | 222 | 6.4 | 24.1 | 0.00 | 1.14 | 1.14 | 91 | 1005.1 |
| 20260903154600 | 18 | 225 | 11.3 | 22.5 | 0.03 | 1.14 | 1.14 | 91 | 1005.0 |
| 20260903153107 | 17 | 218 | 6.4 | 16.1 | 0.05 | 1.14 | 1.14 | 92 | 1005.1 |
| 20260903151607 | 17 | 212 | 9.7 | 20.9 | 0.05 | 1.14 | 1.14 | 93 | 1005.4 |
| 20260903150059 | 17 | 178 | 3.2 | 9.7 | 0.05 | 1.14 | 1.14 | 92 | 1005.5 |
| 20260903144551 | 17 | 188 | 4.8 | 11.3 | 0.03 | 1.09 | 1.09 | 92 | 1005.9 |
| 20260903143050 | 17 | 199 | 6.4 | 12.9 | 0.00 | 1.09 | 1.09 | 92 | 1005.9 |
| 20260903141549 | 17 | 224 | 6.4 | 17.7 | 0.00 | 1.09 | 1.09 | 92 | 1006.1 |
| 20260903140055 | 17 | 168 | 3.2 | 12.9 | 0.00 | 1.09 | 1.09 | 92 | 1006.5 |
| 20260903134548 | 16 | 179 | 6.4 | 12.9 | 0.00 | 1.27 | 1.09 | 92 | 1006.6 |
| 20260903133046 | 16 | 238 | 8.0 | 16.1 | 0.00 | 1.27 | 1.09 | 92 | 1006.7 |
| 20260903131542 | 16 | 210 | 8.0 | 14.5 | 0.00 | 1.27 | 1.09 | 92 | 1006.7 |
| 20260903130047 | 16 | 212 | 6.4 | 11.3 | 0.00 | 1.27 | 1.09 | 92 | 1006.8 |
| 20260903124537 | 16 | 210 | 4.8 | 14.5 | 0.00 | 1.27 | 1.09 | 92 | 1007.1 |
| 20260903123036 | 16 | 132 | 4.8 | 12.9 | 0.00 | 1.27 | 1.09 | 92 | 1007.2 |